SCP
1 1 1 1 1 1 1 1 1 0 0 0 0 0 1 1 1 1 1 1 1 0 0 0 0 0 0 0 0 0 0 0 0 0 0 0 0 0 0 0 0 0 0
1 1 0 0 0 0 0 0 0 0 0 0 0 0 0 0 0 1 1 1 0 0 0 0 0 0 0 0 0 0 0 0 0 0 0 0 0 0 0 0 0 0 0
0 0 0 0 0 0 0 0 0 0 0 0 0 0 0 0 0 0 1 1 0 0 0 0 0 0 0 0 0 0 0 0 0 0 0 0 0 0 0 0 0 0 0
0 0 0 0 0 0 0 0 0 0 0 0 0 0 0 0 0 0 0 0 0 0 0 0 0 0 0 0 0 0 0 0 0 0 0 0 0 0 0 0 0 0 0
0 0 0 0 0 0 0 0 0 0 0 0 0 0 0 0 0 0 0 0 0 0 0 0 0 0 0 0 0 0 0 0 0 0 0 0 0 0 0 0 0 0 0
0 0 0 0 0 0 0 0 0 0 0 0 0 0 0 0 0 0 0 0 0 0 0 0 0 0 0 0 0 0 0 0 0 0 0 0 0 0 0 0 0 0 0
0 0 0 0 0 0 0 0 0 0 0 0 0 0 0 0 0 0 0 0 0 0 0 0 0 0 0 0 0 0 0 0 0 0 0 0 0 0 0 0 0 0 0
0 0 0 -0 0 0 0 0 0 0 0 0 0 0 0 0 0 0 0 0 0 0 0 0 0 0 0 0 0 0 0 0 0 0 0 0 0 0 0 0 0 0 0
0 0 0 0 0 0 0 0 0 0 0 0 0 0 0 0 0 0 0 0 0 0 0 0 0 0 0 0 0 0 0 0 0 0 0 0 0 0 0 0 0 0 0
0 0 0 0 0 0 0 0 0 0 0 0 0 0 0 0 0 0 0 0 0 0 0 0 -0 -0 0 0 0 0 0 0 0 0 0 0 0 0 0 0 0 0 0
0 0 0 0 0 0 0 0 0 0 0 0 0 0 0 0 0 0 0 0 0 0 0 0 0 0 0 0 0 0 0 0 0 0 0 0 0 0 0 0 0 0 0
0 0 0 0 0 0 0 0 0 0 0 0 0 0 0 0 0 0 0 0 0 0 0 0 0 0 0 0 0 0 0 0 0 0 0 0 0 0 0 0 0 0 0
0 0 0 0 0 0 0 0 0 0 0 0 0 0 0 0 0 0 0 0 0 0 0 0 0 0 0 0 0 0 0 0 0 0 0 0 0 0 0 0 0 0 0
0 0 0 0 0 0 0 0 0 0 0 0 0 0 0 0 0 0 0 0 0 0 0 0 0 0 0 0 0 0 0 0 0 0 0 0 0 0 0 0 0 0 0
0 0 0 0 0 0 0 0 0 0 0 0 0 0 0 0 0 0 0 0 0 0 0 0 0 0 0 0 0 0 0 0 0 0 0 0 0 0 0 0 0 0 0
0 0 0 0 0 0 0 0 0 0 0 0 0 0 0 0 0 0 0 0 0 0 0 0 0 0 0 0 0 0 0 0 0 0 0 0 0 0 0 0 0 0 0
0 0 0 0 0 0 0 0 0 0 0 0 0 0 0 0 0 0 0 0 0 0 0 0 0 0 0 0 0 0 0 0 0 0 0 0 0 0 0 0 0 0 0
0 0 0 0 0 0 0 0 0 0 0 0 0 0 0 0 0 0 0 0 0 0 0 0 0 0 0 0 0 0 0 0 0 0 0 0 0 0 0 0 0 0 0
0 0 0 0 0 0 0 0 0 0 0 0 0 0 0 0 0 0 0 0 0 0 0 0 0 0 0 0 0 0 0 0 0 0 0 0 0 0 0 0 0 0 0
0 0 0 0 0 0 0 0 0 0 0 0 0 0 0 0 0 0 0 0 0 0 0 0 0 0 0 0 0 0 0 0 0 0 0 0 0 0 0 0 0 0 0
0 0 0 0 0 0 0 0 0 0 0 0 0 0 0 0 0 0 0 0 0 0 0 0 0 0 0 0 0 0 0 0 0 0 0 0 0 0 0 0 0 0 0
0 0 0 0 0 0 0 0 0 0 0 0 0 0 0 0 0 0 0 0 0 0 0 0 0 0 0 0 0 0 0 0 0 0 0 0 0 0 0 0 0 0 0
0 0 0 0 0 0 0 0 0 0 0 0 0 0 0 0 0 0 0 0 0 0 0 0 0 0 0 0 0 0 0 0 0 0 0 0 0 0 0 0 0 0 0
0 0 0 0 0 0 0 0 0 0 0 0 0 0 0 0 0 0 0 0 0 0 0 0 0 0 0 0 0 0 0 0 0 0 0 0 0 0 0 0 0 0 0
0 0 0 0 0 0 0 0 0 0 0 0 0 0 0 0 0 0 0 0 0 0 0 0 0 0 0 0 0 0 0 0 0 0 0 0 0 0 0 0 0 0 0
0 0 0 0 0 0 0 0 0 0 0 0 0 0 0 0 0 0 0 0 0 0 0 0 0 0 0 0 0 0 0 0 0 0 0 0 0 0 0 0 0 0 0
Wind_Speed
7 8 8 7 7 7 5 5 4 3 1 0 0 1 3 2 2 3 3 4 4 4 4 4 4 4 4 4 3 2 2 1 1 0 2 2 2 3 3 3 4 4 4
8 8 8 8 8 6 6 6 4 3 3 2 1 1 1 1 1 1 1 1 2 2 4 5 4 4 3 3 3 3 2 1 2 2 0 2 3 2 1 1 2 2 2
5 6 7 7 7 7 6 5 5 4 4 3 2 2 2 1 1 1 1 2 2 2 2 3 3 3 3 4 4 4 5 3 2 2 3 2 2 2 2 2 1 1 1
4 4 4 6 6 5 4 5 4 4 4 3 3 3 3 2 3 2 1 2 3 3 2 1 1 2 2 3 4 4 3 4 3 2 2 2 2 2 2 2 2 2 2
3 3 3 4 4 3 2 2 4 5 4 4 4 4 3 2 2 2 3 3 3 3 3 2 1 1 1 3 3 3 4 4 4 3 2 2 1 2 2 3 3 2 2
3 3 3 3 2 2 2 2 3 3 2 3 4 4 4 2 2 2 2 2 1 2 4 3 2 2 1 2 2 3 4 4 4 4 4 3 3 3 4 4 3 3 3
2 2 2 2 2 2 2 1 1 1 1 2 2 3 3 3 2 1 1 0 1 1 2 2 2 2 2 2 2 2 3 4 5 5 5 5 4 3 4 3 3 3 2
3 4 4 4 4 5 4 4 3 3 3 3 2 2 3 2 2 2 2 2 2 2 2 2 2 2 2 2 2 2 3 3 5 6 6 5 5 5 5 4 3 2 2
5 5 6 6 7 7 6 5 4 4 4 4 4 4 4 4 4 4 3 3 3 3 3 3 3 3 3 3 2 2 3 3 4 5 5 5 5 5 5 5 4 4 3
5 6 6 7 7 6 6 5 5 6 6 6 5 5 6 6 6 5 5 5 5 4 4 4 4 4 4 3 2 2 3 3 4 3 4 5 4 5 5 6 5 5 5
6 6 6 6 6 6 6 6 6 7 7 8 7 7 7 7 6 6 7 7 6 6 6 5 5 4 5 4 3 4 4 4 4 4 4 5 5 4 5 5 5 6 5
6 6 6 6 5 6 7 7 8 8 9 9 8 9 8 7 7 8 9 8 7 7 7 6 6 6 6 5 5 5 5 5 5 5 5 6 4 5 5 5 6 6 7
7 6 6 6 6 7 8 8 9 10 10 9 9 9 9 9 10 10 9 8 8 8 7 7 8 8 7 7 6 7 6 6 6 6 6 7 6 6 5 6 6 6 6
8 7 7 7 8 8 9 9 10 10 10 9 9 10 11 11 11 10 9 9 9 9 9 9 9 9 8 8 8 7 7 7 7 7 7 7 7 7 7 6 7 7 7
9 9 9 9 9 9 10 9 10 10 10 9 9 11 12 11 10 10 10 9 9 10 9 9 9 8 8 8 9 8 8 7 7 7 7 8 10 10 9 7 6 7 7
10 10 10 10 10 10 10 10 10 10 9 9 11 11 10 10 10 10 10 9 9 9 8 9 9 9 8 11 13 10 8 7 8 8 8 8 10 11 12 13 12 11 10
11 11 10 10 10 10 10 10 10 10 9 10 11 10 10 10 11 11 10 9 9 9 9 9 9 10 11 14 14 14 9 8 8 8 8 8 8 9 8 10 12 13 14
10 10 10 10 10 10 10 10 10 10 10 10 10 10 10 10 10 9 9 9 8 7 8 8 9 9 11 14 14 14 10 8 9 9 9 9 9 9 8 8 8 9 10
10 10 10 11 10 11 11 10 10 10 10 11 11 11 10 10 9 9 9 8 7 8 8 7 9 9 10 13 14 13 6 7 9 9 9 10 10 11 11 9 9 9 8
10 10 10 11 11 12 10 10 12 12 12 12 12 11 10 10 10 10 9 8 7 8 8 8 8 9 10 11 13 12 6 7 7 7 8 12 12 12 12 10 9 10 8
12 11 11 11 11 12 11 12 12 13 13 12 11 10 10 9 10 9 8 7 7 7 7 8 8 8 9 11 13 12 6 7 7 7 7 7 11 13 13 12 10 11 8
11 11 11 12 12 11 11 12 13 13 12 11 11 11 10 9 9 7 7 7 6 6 7 7 7 6 7 9 10 11 11 10 8 7 7 6 9 12 12 10 10 11 9
11 11 12 13 13 11 11 13 14 13 12 11 11 10 9 8 7 7 6 5 5 5 5 5 6 5 5 6 10 11 11 12 8 7 9 9 9 9 8 11 11 10 8
12 11 12 14 14 13 12 12 13 12 11 11 10 9 8 8 7 5 5 5 5 5 5 5 5 5 4 4 4 5 5 7 7 6 6 7 7 6 6 6 7 7 7
10 11 12 14 15 14 14 13 12 11 11 10 9 8 7 6 6 5 4 5 5 5 6 5 5 5 5 6 7 5 4 4 4 3 3 3 3 4 4 5 5 6 6
12 13 14 14 15 15 15 13 11 10 10 9 8 6 5 4 4 4 4 5 7 8 10 10 7 6 8 7 7 8 8 7 5 4 3 4 4 5 5 6 5 6 7
Wind_Direction
38 34 36 38 50 53 55 57 56 49 31 278 228 228 234 219 217 219 212 216 225 223 211 221 215 194 193 196 183 172 184 203 182 179 309 305 281 263 256 255 252 251 249
34 33 41 42 43 45 51 60 49 29 353 332 322 292 219 199 219 256 266 227 237 239 230 220 214 203 192 188 182 170 163 185 172 156 126 329 334 334 327 304 259 256 254
40 32 37 41 42 34 39 56 51 44 24 14 12 348 3 22 27 20 4 349 332 285 229 221 222 214 195 198 195 184 174 185 199 184 163 172 238 302 320 333 331 312 289
32 36 39 44 41 27 45 62 60 58 53 56 67 59 47 30 358 330 20 13 15 1 360 321 243 230 214 212 208 194 185 171 191 205 208 196 176 190 304 316 317 312 286
18 30 30 43 45 34 41 64 67 60 57 70 84 86 76 56 20 23 35 25 18 19 19 17 359 306 252 238 224 201 199 191 186 187 182 191 199 203 216 273 304 311 282
360 7 7 17 9 357 7 30 69 65 59 75 84 97 100 94 72 45 31 18 3 12 15 15 9 352 304 268 246 225 215 213 206 198 190 183 184 194 202 232 261 284 287
307 308 311 305 291 289 278 259 153 155 157 118 115 125 133 137 139 156 149 58 353 323 325 350 344 335 317 294 264 238 233 222 219 215 214 210 210 190 187 209 243 263 287
275 272 266 261 259 256 253 247 234 229 222 202 194 193 182 176 194 205 203 210 222 245 264 286 291 288 293 299 281 258 247 231 228 230 223 221 222 209 200 197 202 251 265
266 263 260 255 252 253 250 245 244 250 249 239 226 223 217 212 215 222 223 227 231 239 246 259 271 281 281 278 280 256 256 252 240 237 232 231 229 218 215 207 199 208 244
277 269 261 257 257 256 261 264 251 246 248 246 241 233 227 225 223 219 225 230 235 236 244 249 253 262 266 266 260 264 261 254 253 248 244 239 230 223 218 212 210 209 217
281 277 276 274 270 267 261 256 255 253 255 250 245 245 241 235 230 228 232 231 233 232 236 242 245 253 258 256 250 258 261 258 259 256 251 252 242 229 222 214 209 211 209
286 280 280 281 277 270 264 257 254 251 251 248 244 244 246 243 237 237 238 232 232 233 233 235 238 244 249 247 243 252 257 255 260 259 253 253 250 239 228 219 218 214 208
293 291 291 286 279 274 269 264 259 255 255 253 250 250 249 245 241 240 239 234 230 233 234 230 233 237 238 239 239 241 244 246 251 254 253 252 245 245 237 226 224 220 212
291 289 287 282 279 275 271 268 267 263 262 259 255 254 253 248 245 243 238 234 228 228 232 230 230 233 235 237 239 238 239 242 248 251 250 252 247 245 242 236 228 220 213
292 288 283 281 283 283 280 276 273 272 269 266 262 258 257 254 251 248 244 240 234 232 229 230 232 232 232 235 233 233 236 236 245 251 249 249 249 248 243 237 226 217 213
288 288 287 288 288 286 284 283 281 280 279 274 269 266 263 260 255 250 247 242 239 236 229 229 232 232 235 233 230 228 231 233 239 249 254 256 256 252 247 240 231 218 213
290 290 291 288 288 287 285 283 283 285 283 279 278 275 270 265 258 255 248 240 239 238 232 231 229 232 237 237 238 237 231 232 237 241 249 258 255 245 246 245 240 230 220
291 292 291 290 288 287 287 285 287 285 282 280 280 278 274 269 264 254 246 243 237 234 236 236 233 231 239 238 238 241 238 237 239 240 241 246 253 250 241 244 243 236 225
288 289 288 290 290 291 291 293 293 290 287 285 282 279 273 271 268 261 251 246 237 233 233 236 234 233 241 240 238 238 233 237 243 244 242 241 246 245 236 236 237 235 231
294 294 295 296 296 295 295 295 294 292 289 287 284 281 276 271 267 262 256 248 238 238 236 238 237 233 238 240 238 233 226 236 245 248 245 240 240 241 230 228 228 227 222
295 296 298 298 296 296 298 296 294 291 290 289 288 284 278 273 270 264 256 247 241 238 236 239 242 236 236 242 240 232 218 226 238 244 246 242 234 234 231 227 227 223 209
299 301 302 300 298 298 299 297 294 294 294 291 288 284 279 277 280 267 260 249 238 237 238 239 245 244 239 236 239 234 226 220 228 241 245 244 236 232 231 229 224 213 199
301 302 302 303 303 301 298 296 296 296 295 291 288 285 283 277 273 267 261 255 237 233 236 233 240 247 240 235 235 236 235 228 227 239 244 245 241 236 234 228 214 201 196
306 306 308 309 309 308 303 297 297 298 295 294 292 287 283 279 275 268 256 248 240 232 233 234 239 244 243 238 229 226 233 235 233 240 245 240 238 230 221 211 206 204 197
308 310 312 311 311 311 308 306 305 304 300 297 295 292 283 279 279 271 257 249 242 231 228 233 229 228 239 237 220 212 219 218 220 216 224 221 208 210 208 203 197 192 187
315 316 316 315 314 314 313 312 310 308 305 302 300 295 286 281 276 276 280 257 249 251 243 240 236 234 237 246 236 231 232 230 212 200 219 219 208 206 201 192 187 186 181